Cincinnati, OH

1:52 AM EDT on September 22, 2017 (GMT -0400)
Cincinnati Municipal-Lunken

Weather History for KLUK - April, 2014

Change the Weather History Date:

Saturday, April 5, 2014

  Actual Average Record
Temperature  
Mean Temperature 46 °F -  
Max Temperature 53 °F 58 °F 86 °F (1988)
Min Temperature 39 °F 39 °F 26 °F (1998)
Degree Days  
Heating Degree Days 20    
Moisture  
Dew Point 29 °F    
Average Humidity 56    
Maximum Humidity 79    
Minimum Humidity 41    
Precipitation  
Precipitation 0.00 in - - ()
Sea Level Pressure  
Sea Level Pressure 30.16 in    
Wind  
Wind Speed 9 mph (NNW)    
Max Wind Speed 15 mph    
Max Gust Speed 30 mph    
Visibility 10 miles    
Events      
Averages and records for this station are not official NWS values.
T = Trace of Precipitation, MM = Missing Value Source: NWS Daily Summary

Daily Weather History Graph

Daily Weather History Graph

Search for Another Location

Airport or City:

Trip Planner

Search our weather history database for the weather conditions in past years. The results will help you decide how hot, cold, wet, or windy it might be!

Date:

Astronomy

Apr. 05, 2014 Rise Set
Actual Time 7:15 AM EDT 8:05 PM EDT
Civil Twilight 6:48 AM EDT 8:32 PM EDT
Nautical Twilight 6:16 AM EDT 9:04 PM EDT
Astronomical Twilight 5:43 AM EDT 9:37 PM EDT
Moon 11:24 AM EDT (4/5) 1:12 AM EDT (4/5)
Length of Visible Light 13h 43m
Length of Day
12h 49m
Waxing Crescent, 34% of the Moon is Illuminated
Apr 5
Waxing Crescent
Apr 7
First Quarter
Apr 15
Full
Apr 22
Last Quarter
Apr 29
New

Hourly Weather History & Observations

Time (EDT) Temp. Windchill Dew Point Humidity Pressure Visibility Wind Dir Wind Speed Gust Speed Precip Events Conditions
12:53 AM 43.0 °F 37.2 °F 28.0 °F 56% 30.03 in 10.0 mi WNW 10.4 mph 23.0 mph N/A   Overcast
1:53 AM 42.1 °F 34.9 °F 27.0 °F 55% 30.05 in 10.0 mi West 13.8 mph 29.9 mph N/A   Overcast
2:53 AM 41.0 °F 33.1 °F 27.0 °F 57% 30.07 in 10.0 mi WNW 15.0 mph 25.3 mph N/A   Overcast
3:53 AM 39.9 °F 33.9 °F 25.0 °F 55% 30.09 in 10.0 mi NW 9.2 mph 25.3 mph N/A   Overcast
4:53 AM 39.0 °F 32.8 °F 25.0 °F 57% 30.10 in 10.0 mi West 9.2 mph 17.3 mph N/A   Overcast
5:53 AM 39.0 °F 32.8 °F 24.1 °F 55% 30.12 in 10.0 mi WNW 9.2 mph 17.3 mph N/A   Overcast
6:53 AM 39.0 °F 32.3 °F 25.0 °F 57% 30.13 in 10.0 mi NW 10.4 mph - N/A   Overcast
7:53 AM 39.0 °F 34.8 °F 26.1 °F 60% 30.16 in 10.0 mi NW 5.8 mph - N/A   Overcast
8:53 AM 39.9 °F 36.7 °F 27.0 °F 60% 30.18 in 10.0 mi Variable 4.6 mph - N/A   Overcast
9:53 AM 42.1 °F 36.1 °F 30.0 °F 62% 30.19 in 10.0 mi NNW 10.4 mph - N/A   Mostly Cloudy
10:53 AM 42.1 °F 35.7 °F 27.0 °F 55% 30.21 in 10.0 mi North 11.5 mph 16.1 mph N/A   Scattered Clouds
11:53 AM 43.0 °F - 28.0 °F 56% 30.22 in 10.0 mi North - - N/A   Scattered Clouds
12:53 PM 46.0 °F 42.5 °F 28.9 °F 51% 30.21 in 10.0 mi NNW 6.9 mph - N/A   Scattered Clouds
1:53 PM 48.9 °F - 32.0 °F 52% 30.20 in 10.0 mi North 9.2 mph - N/A   Clear
2:53 PM 48.9 °F - 30.0 °F 48% 30.19 in 10.0 mi NNW 8.1 mph - N/A   Clear
3:53 PM 51.1 °F - 30.0 °F 44% 30.18 in 10.0 mi North 6.9 mph - N/A   Partly Cloudy
4:53 PM 52.0 °F - 30.0 °F 43% 30.17 in 10.0 mi North 6.9 mph - N/A   Partly Cloudy
5:53 PM 51.1 °F - 28.9 °F 43% 30.17 in 10.0 mi Variable 4.6 mph - N/A   Clear
6:53 PM 51.1 °F - 28.0 °F 41% 30.17 in 10.0 mi Calm Calm - N/A   Clear
7:53 PM 48.9 °F - 28.0 °F 44% 30.19 in 10.0 mi NNE 4.6 mph - N/A   Clear
8:53 PM 46.0 °F - 30.9 °F 56% 30.19 in 10.0 mi Calm Calm - N/A   Clear
9:53 PM 43.0 °F - 33.1 °F 68% 30.20 in 10.0 mi Calm Calm - N/A   Clear
10:53 PM 39.9 °F 37.8 °F 34.0 °F 79% 30.20 in 10.0 mi ENE 3.5 mph - N/A   Clear
11:53 PM 39.0 °F - 33.1 °F 79% 30.21 in 10.0 mi Calm Calm - N/A   Clear